Flag for Switzerland Weather past 2 weeks in Schwyz, Schwyz, Switzerland

Now
56 °F

Cool.


Feels Like: 54 °F
Forecast: 41 / 70 °F
Wind: 7 mph from Northwest

Location: Altdorf


UV Index: 3 (Moderate)

Visibility: N/A


Pressure: 30.09 "Hg

Humidity: 78%

Dew point: 49 °F

Location of SchwyzLocation

Historic Weather in Schwyz

°F

Schwyz temperature yesterday

Maximum temperature yesterday: 70 °F (at 4:00 PM)
Minimum temperature yesterday: 43 °F (at 5:00 AM)
Average temperature yesterday: 56 °F

Past Weeks' High & Low Weather Summary

 TemperatureHumidityPressure
High70 °F (Apr 23, 4:00 PM)95% (Apr 13, 4:00 AM)30.34 "Hg (Apr 13, 4:00 AM)
Low31 °F (Apr 17, 7:00 AM)37% (Apr 15, 3:00 PM)29.59 "Hg (Apr 20, 6:00 PM)
Average51 °F67%30.01 "Hg
* Reported Apr 8 10:00 PM — Apr 23 10:00 PM, Schwyz, Weather by CustomWeather, © 2014

Note: Actual official high and low records may vary slightly from our data, if they occured in-between our weather recording intervals... More about our weather records

Advertising

Historic Weather Conditions — Data for Previous 24 hours

 ConditionsComfort  
Time TempWeatherWind HumidityBarometerVisibility
10:00 PM
Apr 23
61 °FRefreshingly cool.5 mph58%30.02 "HgN/A
9:00 PM62 °FMild.2 mph54%29.99 "HgN/A
8:00 PM62 °FScattered clouds.6 mph59%29.97 "Hg12 mi
7:00 PM66 °FMild.10 mph45%29.93 "HgN/A
6:00 PM67 °FMild.8 mph48%29.93 "HgN/A
5:00 PM66 °FScattered clouds.7 mph58%29.93 "Hg14 mi
4:00 PM70 °FMild.8 mph49%29.94 "HgN/A
3:00 PM67 °FMild.7 mph54%29.97 "HgN/A
2:00 PM64 °FScattered clouds.6 mph57%30.01 "Hg14 mi
1:00 PM62 °FRefreshingly cool.6 mph59%30.03 "HgN/A
12:00 PM61 °FRefreshingly cool.6 mph60%30.06 "HgN/A
11:00 AM58 °FPartly sunny.5 mph62%30.09 "Hg14 mi
10:00 AM56 °FCool.1 mph61%30.09 "HgN/A
9:00 AM49 °FCool.1 mph84%30.12 "HgN/A
8:00 AM45 °FPartly sunny.1 mph86%30.14 "Hg12 mi
7:00 AM46 °FCool.1 mph83%30.12 "HgN/A
6:00 AM43 °FQuite cool.3 mph91%30.12 "HgN/A
5:00 AM43 °FClear.2 mph90%30.11 "Hg11 mi
4:00 AM45 °FCool.2 mph88%30.09 "HgN/A
3:00 AM43 °FQuite cool.2 mph91%30.09 "HgN/A
2:00 AM48 °FClear.1 mph84%30.06 "Hg11 mi
1:00 AM48 °FCool.2 mph85%30.05 "HgN/A
12:00 AM52 °FCool.1 mph77%30.02 "HgN/A
Weather by CustomWeather, © 2014

See weather overview